Location: Zilina
(0.0000°N, 18.7333°E)
Time: 10:07:14
(UTC+02:00)

Cosmos 2074 Rocket - Pass Details

Date: 19 February 2019
Orbit: 966 x 987 km, 82.9° (Epoch: 22 October)

Event Time Altitude Azimuth Distance (km) Brightness Sun altitude
Rises 18:47:36 0° 11° (N) 3,658 6.8 -11.9°
Reaches altitude 10° 18:50:15 10° 18° (NNE) 2,716 6.1 -12.6°
Maximum altitude 18:56:03 42° 87° (E) 1,371 4.3 -14.0°
Drops below altitude 10° 19:01:55 10° 156° (SSE) 2,738 6.2 -15.4°
Sets 19:04:34 0° 163° (SSE) 3,690 7.0 -16.1°
